Regional Weather Roundup
Issued by NWS

Home | Current Version | Previous Version | Graphics & Text | Print | Product List | Glossary On
Versions: 1 2 3 4 5 6 7 8 9 10 11 12 13 14 15 16 17 18 19 20 21 22 23 24 25 26 27
000
ASUS45 KSLC 201510
RWRUT

UTAH REGIONAL WEATHER ROUNDUP
NATIONAL WEATHER SERVICE SALT LAKE CITY UT
800 AM MST MON NOV 20 2017

UTZ001>011-023>025-201600-

NORTHERN UTAH

CITY           SKY/WX    TMP DP  RH WIND       PRES   REMARKS
BRIGHAM CITY   CLOUDY    32  29  87 N5        30.07R WCI  28
DUGWAY         MOCLDY    30  28  90 SE2       30.05S
HILL AFB       CLOUDY    33  22  63 E14       30.05F WCI  23
LOGAN          CLOUDY    33  28  81 N6        30.06R WCI  28
OGDEN          CLOUDY    33  25  72 S6        30.05F WCI  28
SALT LAKE CITY CLOUDY    37  32  82 CALM      30.06S
TOOELE VALLEY  CLOUDY    32  30  93 SE6       30.07S WCI  26
WENDOVER       MOCLDY    30  25  81 CALM      30.06F
HEBER CITY       N/A     28  25  86 CALM      30.07R
WEST JORDAN    CLOUDY    34  31  87 W7        30.07R WCI  28

$$

UTZ011>015-024>027-201600-

CENTRAL/NORTHEAST UTAH

CITY           SKY/WX    TMP DP  RH WIND       PRES   REMARKS
PROVO AIRPORT  CLOUDY    36  23  59 E5        30.08R WCI  32
MOAB/CANYONLAN CLOUDY    29   9  43 CALM      30.18R
DELTA          CLOUDY    32  23  69 NE5       30.08R WCI  27
PRICE          MOCLDY    23   9  55 NE7       30.16R WCI  15
RICHFIELD      CLEAR     25  23  93 CALM      30.13S
ROOSEVELT      CLOUDY    25  18  74 SW5       30.15S WCI  19
VERNAL         CLOUDY    26  15  63 CALM      30.13R

$$

UTZ013>016-019>022-027-201600-

SOUTHERN UTAH

CITY           SKY/WX    TMP DP  RH WIND       PRES   REMARKS
BRYCE CANYON   MOCLDY    17   7  64 W7        30.18S WCI   8
CEDAR CITY     CLOUDY    37  17  44 CALM      30.10S
MILFORD        CLOUDY    44   8  23 S17       30.07R
ST GEORGE      CLOUDY    40   9  28 NW3       30.15R
HANKSVILLE     MOCLDY    21   5  49 MISG      30.23R
KANAB          CLEAR     30   9  40 NE2       30.20S
BLANDING         N/A     26   5  41 CALM      30.26S

$$

REGIONAL REPORTS     COLORADO/ARIZONA

CITY           SKY/WX    TMP DP  RH WIND       PRES   REMARKS
CRAIG, CO      CLOUDY    24  17  74 SW5       30.12R WCI  18
GRAND JUNCTION CLOUDY    27  18  69 NE5       30.18S WCI  22
RIFLE, CO      CLOUDY    22  17  81 CALM      30.20S
MONTROSE, CO   CLOUDY    26  19  74 S6        30.20F WCI  19
CORTEZ, CO     CLOUDY    19  12  74 CALM      30.20R
COLORADO CITY    N/A     32  10  40 SE3       30.17S
PAGE, AZ       MOCLDY    36   9  32 SW3       30.18S
GRAND CANYON   MOCLDY    19  -1  41 CALM      30.21R
KINGMAN, AZ    MOCLDY    38  10  31 S3        30.10R
FLAGSTAFF, AZ  PTCLDY    25   9  50 CALM      30.21R

$$

REGIONAL REPORTS    NEVADA/IDAHO/WYOMING

CITY           SKY/WX    TMP DP  RH WIND       PRES   REMARKS
LAS VEGAS, NV  CLOUDY    47  11  23 S3        30.08S
ELY, NY        CLOUDY    30   9  41 S8        30.12R WCI  22
ELKO, NV       CLOUDY    33  28  81 W3        30.04R
POCATELLO, ID  CLOUDY    43  23  45 S15G22    29.99S
BURLEY, ID     CLOUDY    42  24  49 SW10      29.97R
FORT BRIDGER,  CLOUDY    33  19  57 W9        30.07F WCI  25
EVANSTON, WY   CLOUDY    30  18  60 W10       30.06S WCI  21
ROCK SPRINGS,  CLOUDY    25  13  60 W13       30.03R WCI  14
KEMMERER, WY   CLOUDY    28  16  59 CALM      30.06R

$$




USA.gov is the U.S. government's official web portal to all federal, state and local government web resources and services.